| time (UTC) | temp F | wind direction | speed MPH | gust MPH | rain 1hr in | rain 24hr in | rain mn in | humidity % | barometer mb |
| 20260902000122 | 96 | 225 | 5.0 | 10.0 | 0.00 | 0.00 | 0.00 | 37 | 1013.7 |
| 20260901235122 | 95 | 284 | 2.0 | 6.0 | 0.00 | 0.00 | 0.00 | 39 | 1013.8 |
| 20260901234122 | 97 | 301 | 5.0 | 9.0 | 0.00 | 0.00 | 0.00 | 37 | 1013.9 |
| 20260901233122 | 96 | 176 | 5.0 | 8.0 | 0.00 | 0.00 | 0.00 | 36 | 1013.8 |
| 20260901232121 | 96 | 291 | 3.0 | 9.0 | 0.00 | 0.00 | 0.00 | 36 | 1014.0 |
| 20260901231122 | 96 | 163 | 4.0 | 15.0 | 0.00 | 0.00 | 0.00 | 37 | 1014.0 |
| 20260901230123 | 96 | 168 | 5.0 | 9.0 | 0.00 | 0.00 | 0.00 | 38 | 1014.1 |
| 20260901225122 | 96 | 252 | 5.0 | 10.0 | 0.00 | 0.00 | 0.00 | 38 | 1014.3 |
| 20260901224122 | 97 | 287 | 6.0 | 11.0 | 0.00 | 0.00 | 0.00 | 37 | 1014.3 |
| 20260901223123 | 96 | 272 | 6.0 | 9.0 | 0.00 | 0.00 | 0.00 | 37 | 1014.4 |
| 20260901222122 | 96 | 123 | 2.0 | 7.0 | 0.00 | 0.00 | 0.00 | 38 | 1014.6 |
| 20260901221123 | 96 | 161 | 3.0 | 8.0 | 0.00 | 0.00 | 0.00 | 38 | 1014.7 |
| 20260901220121 | 96 | 271 | 7.0 | 12.0 | 0.00 | 0.00 | 0.00 | 37 | 1014.7 |
| 20260901215142 | 96 | 343 | 4.0 | 9.0 | 0.00 | 0.00 | 0.00 | 40 | 1014.8 |
| 20260901214122 | 95 | 359 | 8.0 | 8.0 | 0.00 | 0.00 | 0.00 | 39 | 1014.9 |
| 20260901213143 | 95 | 254 | 6.0 | 12.0 | 0.00 | 0.00 | 0.00 | 40 | 1015.2 |
| 20260901212123 | 95 | 156 | 2.0 | 6.0 | 0.00 | 0.00 | 0.00 | 41 | 1015.4 |
| 20260901211121 | 94 | 272 | 5.0 | 9.0 | 0.00 | 0.00 | 0.00 | 41 | 1015.6 |
| 20260901210123 | 95 | 255 | 6.0 | 11.0 | 0.00 | 0.00 | 0.00 | 41 | 1015.7 |
| 20260901205122 | 94 | 181 | 6.0 | 11.0 | 0.00 | 0.00 | 0.00 | 42 | 1015.8 |
| 20260901204121 | 94 | 153 | 4.0 | 6.0 | 0.00 | 0.00 | 0.00 | 42 | 1016.1 |
| 20260901203122 | 94 | 178 | 4.0 | 9.0 | 0.00 | 0.00 | 0.00 | 42 | 1016.2 |
| 20260901202122 | 93 | 246 | 1.0 | 3.0 | 0.00 | 0.00 | 0.00 | 44 | 1016.3 |
| 20260901201123 | 93 | 182 | 4.0 | 7.0 | 0.00 | 0.00 | 0.00 | 43 | 1016.5 |
| 20260901200121 | 93 | 146 | 5.0 | 9.0 | 0.00 | 0.00 | 0.00 | 44 | 1016.7 |
| 20260901195123 | 92 | 226 | 5.0 | 13.0 | 0.00 | 0.00 | 0.00 | 44 | 1016.7 |
| 20260901194121 | 92 | 116 | 3.0 | 6.0 | 0.00 | 0.00 | 0.00 | 44 | 1016.8 |
| 20260901193122 | 92 | 306 | 2.0 | 3.0 | 0.00 | 0.00 | 0.00 | 46 | 1017.1 |
| 20260901192142 | 91 | 131 | 4.0 | 8.0 | 0.00 | 0.00 | 0.00 | 46 | 1017.2 |
| 20260901191123 | 91 | 253 | 3.0 | 7.0 | 0.00 | 0.00 | 0.00 | 47 | 1017.4 |
| 20260901190121 | 90 | 280 | 6.0 | 10.0 | 0.00 | 0.00 | 0.00 | 48 | 1017.6 |
| 20260901185121 | 90 | 360 | 6.0 | 6.0 | 0.00 | 0.00 | 0.00 | 48 | 1017.7 |
| 20260901184122 | 89 | 235 | 3.0 | 8.0 | 0.00 | 0.00 | 0.00 | 48 | 1017.8 |
| 20260901183121 | 89 | 205 | 2.0 | 8.0 | 0.00 | 0.00 | 0.00 | 48 | 1017.9 |
| 20260901182122 | 89 | 132 | 5.0 | 9.0 | 0.00 | 0.00 | 0.00 | 49 | 1018.1 |
| 20260901181123 | 88 | 134 | 5.0 | 10.0 | 0.00 | 0.00 | 0.00 | 50 | 1018.2 |
| 20260901180122 | 88 | 235 | 4.0 | 8.0 | 0.00 | 0.00 | 0.00 | 50 | 1018.2 |
| 20260901175121 | 88 | 138 | 3.0 | 6.0 | 0.00 | 0.00 | 0.00 | 49 | 1018.2 |
| 20260901174121 | 89 | 87 | 4.0 | 7.0 | 0.00 | 0.00 | 0.00 | 50 | 1018.4 |
| 20260901173121 | 88 | 93 | 3.0 | 10.0 | 0.00 | 0.00 | 0.00 | 49 | 1018.4 |
| 20260901172121 | 87 | 200 | 5.0 | 9.0 | 0.00 | 0.00 | 0.00 | 51 | 1018.6 |
| 20260901171122 | 87 | 257 | 5.0 | 9.0 | 0.00 | 0.00 | 0.00 | 52 | 1018.4 |
| 20260901170123 | 87 | 133 | 5.0 | 9.0 | 0.00 | 0.00 | 0.00 | 50 | 1018.4 |
| 20260901165122 | 86 | 204 | 4.0 | 8.0 | 0.00 | 0.10 | 0.00 | 52 | 1018.4 |
| 20260901164123 | 85 | 252 | 6.0 | 9.0 | 0.00 | 0.10 | 0.00 | 53 | 1018.2 |
| 20260901163121 | 85 | 256 | 6.0 | 11.0 | 0.00 | 0.10 | 0.00 | 52 | 1018.2 |
| 20260901162121 | 86 | 119 | 6.0 | 10.0 | 0.00 | 0.10 | 0.00 | 50 | 1018.3 |
| 20260901161122 | 86 | 243 | 4.0 | 9.0 | 0.00 | 0.10 | 0.00 | 51 | 1018.2 |
| 20260901160122 | 85 | 131 | 4.0 | 8.0 | 0.00 | 0.10 | 0.00 | 52 | 1017.9 |
| 20260901155121 | 85 | 145 | 0.0 | 0.0 | 0.00 | 0.20 | 0.00 | 51 | 1017.9 |
| 20260901154121 | 85 | 48 | 3.0 | 7.0 | 0.00 | 0.20 | 0.00 | 52 | 1017.9 |
| 20260901153121 | 85 | 62 | 3.0 | 5.0 | 0.00 | 0.20 | 0.00 | 51 | 1017.9 |
| 20260901152122 | 84 | 26 | 2.0 | 5.0 | 0.00 | 0.20 | 0.00 | 51 | 1017.8 |
| 20260901151121 | 84 | 16 | 3.0 | 4.0 | 0.00 | 0.20 | 0.00 | 52 | 1017.9 |
| 20260901150123 | 84 | 8 | 3.0 | 7.0 | 0.00 | 0.20 | 0.00 | 54 | 1017.9 |
| 20260901145123 | 83 | 7 | 4.0 | 6.0 | 0.00 | 0.20 | 0.00 | 55 | 1017.8 |
| 20260901144121 | 83 | 3 | 3.0 | 5.0 | 0.00 | 0.20 | 0.00 | 56 | 1017.7 |
| 20260901143142 | 82 | 1 | 3.0 | 8.0 | 0.00 | 0.20 | 0.00 | 58 | 1017.6 |
| 20260901142122 | 81 | 7 | 4.0 | 6.0 | 0.00 | 0.20 | 0.00 | 59 | 1017.6 |
| 20260901141142 | 80 | 2 | 4.0 | 8.0 | 0.00 | 0.20 | 0.00 | 61 | 1017.5 |
| 20260901140122 | 80 | 5 | 4.0 | 6.0 | 0.00 | 0.20 | 0.00 | 63 | 1017.5 |
| 20260901135121 | 79 | 2 | 3.0 | 5.0 | 0.00 | 0.20 | 0.00 | 65 | 1017.4 |
| 20260901134122 | 78 | 6 | 4.0 | 6.0 | 0.00 | 0.20 | 0.00 | 67 | 1017.4 |
| 20260901133142 | 77 | 0 | 4.0 | 6.0 | 0.00 | 0.20 | 0.00 | 69 | 1017.3 |
| 20260901132122 | 76 | 7 | 5.0 | 9.0 | 0.00 | 0.20 | 0.00 | 69 | 1017.1 |
| 20260901131121 | 76 | 22 | 3.0 | 5.0 | 0.00 | 0.20 | 0.00 | 70 | 1017.1 |
| 20260901130121 | 76 | 1 | 3.0 | 4.0 | 0.00 | 0.20 | 0.00 | 70 | 1016.9 |
| 20260901125121 | 76 | 3 | 3.0 | 5.0 | 0.00 | 0.20 | 0.00 | 69 | 1016.9 |
| 20260901123123 | 76 | 0 | 5.0 | 9.0 | 0.00 | 0.20 | 0.00 | 69 | 1016.8 |
| 20260901122122 | 76 | 360 | 6.0 | 6.0 | 0.00 | 0.20 | 0.00 | 69 | 1016.7 |
| 20260901121145 | 76 | 5 | 4.0 | 6.0 | 0.00 | 0.20 | 0.00 | 70 | 1016.7 |
| 20260901120123 | 76 | 5 | 4.0 | 8.0 | 0.00 | 0.20 | 0.00 | 71 | 1016.7 |
| 20260901115123 | 75 | 360 | 3.0 | 5.0 | 0.00 | 0.20 | 0.00 | 73 | 1016.5 |
| 20260901114123 | 75 | 360 | 3.0 | 4.0 | 0.00 | 0.20 | 0.00 | 75 | 1016.4 |
| 20260901113123 | 75 | 360 | 3.0 | 4.0 | 0.00 | 0.20 | 0.00 | 74 | 1016.4 |
| 20260901112144 | 75 | 360 | 3.0 | 4.0 | 0.00 | 0.20 | 0.00 | 72 | 1016.4 |
| 20260901111123 | 75 | 38 | 3.0 | 6.0 | 0.00 | 0.20 | 0.00 | 72 | 1016.4 |
| 20260901110123 | 75 | 95 | 3.0 | 4.0 | 0.00 | 0.20 | 0.00 | 72 | 1016.4 |
| 20260901105123 | 76 | 49 | 2.0 | 6.0 | 0.00 | 0.20 | 0.00 | 72 | 1016.4 |
| 20260901104123 | 76 | 77 | 2.0 | 4.0 | 0.00 | 0.20 | 0.00 | 72 | 1016.4 |
| 20260901103123 | 75 | 87 | 2.0 | 4.0 | 0.00 | 0.20 | 0.00 | 74 | 1016.4 |
| 20260901102123 | 75 | 41 | 4.0 | 5.0 | 0.00 | 0.20 | 0.00 | 76 | 1016.5 |
| 20260901101124 | 74 | 16 | 2.0 | 4.0 | 0.00 | 0.20 | 0.00 | 78 | 1016.6 |
| 20260901100123 | 75 | 360 | 1.0 | 2.0 | 0.00 | 0.20 | 0.00 | 78 | 1016.7 |
| 20260901095123 | 75 | 360 | 1.0 | 3.0 | 0.00 | 0.20 | 0.00 | 78 | 1016.7 |
| 20260901094123 | 75 | 114 | 0.0 | 2.0 | 0.00 | 0.20 | 0.00 | 77 | 1016.7 |
| 20260901093123 | 76 | 360 | 0.0 | 2.0 | 0.00 | 0.20 | 0.00 | 75 | 1016.8 |
| 20260901092123 | 75 | 8 | 1.0 | 3.0 | 0.00 | 0.20 | 0.00 | 77 | 1016.7 |
| 20260901091144 | 75 | 360 | 0.0 | 2.0 | 0.00 | 0.20 | 0.00 | 77 | 1016.6 |
| 20260901090123 | 75 | 115 | 0.0 | 0.0 | 0.00 | 0.20 | 0.00 | 76 | 1016.6 |
| 20260901085123 | 76 | 116 | 0.0 | 0.0 | 0.00 | 0.20 | 0.00 | 75 | 1016.5 |
| 20260901084144 | 76 | 114 | 0.0 | 2.0 | 0.00 | 0.20 | 0.00 | 73 | 1016.6 |
| 20260901083123 | 76 | 109 | 0.0 | 2.0 | 0.00 | 0.20 | 0.00 | 73 | 1016.6 |
| 20260901082124 | 76 | 56 | 1.0 | 4.0 | 0.00 | 0.20 | 0.00 | 73 | 1016.7 |
| 20260901081124 | 77 | 360 | 1.0 | 3.0 | 0.00 | 0.20 | 0.00 | 71 | 1016.7 |
| 20260901080123 | 77 | 360 | 1.0 | 3.0 | 0.00 | 0.20 | 0.00 | 70 | 1016.7 |
| 20260901075144 | 77 | 12 | 2.0 | 3.0 | 0.00 | 0.20 | 0.00 | 69 | 1016.7 |
| 20260901074144 | 77 | 360 | 3.0 | 4.0 | 0.00 | 0.20 | 0.00 | 71 | 1016.6 |
| 20260901073123 | 76 | 360 | 2.0 | 3.0 | 0.00 | 0.20 | 0.00 | 74 | 1016.6 |
| 20260901072123 | 76 | 360 | 3.0 | 3.0 | 0.00 | 0.20 | 0.00 | 74 | 1016.5 |
| 20260901071123 | 76 | 360 | 3.0 | 4.0 | 0.00 | 0.20 | 0.00 | 75 | 1016.5 |
| 20260901070124 | 76 | 360 | 3.0 | 4.0 | 0.00 | 0.20 | 0.00 | 75 | 1016.4 |
| 20260901065124 | 76 | 360 | 2.0 | 3.0 | 0.00 | 0.20 | 0.20 | 75 | 1016.5 |
| 20260901064123 | 76 | 360 | 1.0 | 2.0 | 0.00 | 0.20 | 0.20 | 73 | 1016.3 |
| 20260901063124 | 76 | 360 | 1.0 | 3.0 | 0.00 | 0.20 | 0.20 | 73 | 1016.3 |
| 20260901062123 | 77 | 360 | 0.0 | 1.0 | 0.00 | 0.20 | 0.20 | 71 | 1016.3 |
| 20260901061123 | 77 | 360 | 2.0 | 4.0 | 0.00 | 0.20 | 0.20 | 69 | 1016.2 |
| 20260901060123 | 77 | 360 | 3.0 | 4.0 | 0.00 | 0.20 | 0.20 | 70 | 1016.3 |
| 20260901055123 | 78 | 360 | 0.0 | 2.0 | 0.00 | 0.20 | 0.20 | 69 | 1016.4 |
| 20260901054123 | 79 | 360 | 1.0 | 3.0 | 0.00 | 0.20 | 0.20 | 66 | 1016.4 |
| 20260901053123 | 79 | 7 | 2.0 | 4.0 | 0.00 | 0.20 | 0.20 | 64 | 1016.4 |
| 20260901052144 | 80 | 4 | 3.0 | 5.0 | 0.00 | 0.20 | 0.20 | 63 | 1016.3 |
| 20260901051123 | 80 | 17 | 3.0 | 5.0 | 0.00 | 0.20 | 0.20 | 62 | 1016.4 |
| 20260901050145 | 80 | 34 | 4.0 | 6.0 | 0.00 | 0.20 | 0.20 | 61 | 1016.3 |
| 20260901045123 | 80 | 95 | 3.0 | 5.0 | 0.00 | 0.20 | 0.20 | 60 | 1016.4 |
| 20260901044124 | 81 | 40 | 3.0 | 8.0 | 0.00 | 0.20 | 0.20 | 59 | 1016.4 |
| 20260901043144 | 81 | 21 | 4.0 | 6.0 | 0.00 | 0.20 | 0.20 | 59 | 1016.2 |
| 20260901042144 | 81 | 4 | 3.0 | 4.0 | 0.00 | 0.20 | 0.20 | 61 | 1016.1 |
| 20260901041123 | 81 | 60 | 2.0 | 5.0 | 0.00 | 0.20 | 0.20 | 58 | 1016.2 |
| 20260901040123 | 82 | 141 | 2.0 | 5.0 | 0.00 | 0.20 | 0.20 | 57 | 1016.3 |
| 20260901035123 | 82 | 104 | 2.0 | 4.0 | 0.00 | 0.20 | 0.20 | 56 | 1016.2 |
| 20260901034123 | 82 | 84 | 2.0 | 4.0 | 0.00 | 0.20 | 0.20 | 57 | 1016.2 |
| 20260901033144 | 82 | 54 | 3.0 | 6.0 | 0.00 | 0.20 | 0.20 | 57 | 1015.8 |
| 20260901032123 | 82 | 6 | 3.0 | 5.0 | 0.00 | 0.20 | 0.20 | 56 | 1015.7 |
| 20260901031124 | 82 | 0 | 3.0 | 5.0 | 0.00 | 0.20 | 0.20 | 55 | 1015.5 |
| 20260901030124 | 82 | 6 | 4.0 | 6.0 | 0.00 | 0.20 | 0.20 | 55 | 1015.2 |
| 20260901025124 | 82 | 28 | 1.0 | 3.0 | 0.00 | 0.20 | 0.20 | 54 | 1015.2 |
| 20260901024145 | 83 | 23 | 2.0 | 4.0 | 0.00 | 0.20 | 0.20 | 53 | 1015.2 |
| 20260901023124 | 83 | 28 | 2.0 | 3.0 | 0.00 | 0.20 | 0.20 | 52 | 1015.0 |
| 20260901022124 | 83 | 23 | 3.0 | 5.0 | 0.00 | 0.20 | 0.20 | 51 | 1014.8 |
| 20260901021124 | 84 | 9 | 2.0 | 4.0 | 0.00 | 0.20 | 0.20 | 51 | 1014.7 |
| 20260901020125 | 84 | 23 | 3.0 | 6.0 | 0.00 | 0.20 | 0.20 | 49 | 1014.5 |
| 20260901015124 | 84 | 18 | 3.0 | 5.0 | 0.00 | 0.20 | 0.20 | 49 | 1014.6 |
| 20260901014124 | 85 | 1 | 4.0 | 6.0 | 0.00 | 0.20 | 0.20 | 48 | 1014.4 |
| 20260901013145 | 85 | 1 | 4.0 | 8.0 | 0.00 | 0.20 | 0.20 | 48 | 1014.3 |
| 20260901012146 | 85 | 0 | 4.0 | 8.0 | 0.00 | 0.20 | 0.20 | 47 | 1014.5 |
| 20260901011124 | 86 | 2 | 6.0 | 10.0 | 0.00 | 0.20 | 0.20 | 46 | 1014.4 |
| 20260901010125 | 86 | 77 | 4.0 | 9.0 | 0.00 | 0.20 | 0.20 | 48 | 1014.5 |
| 20260901005124 | 86 | 5 | 7.0 | 11.0 | 0.00 | 0.20 | 0.20 | 47 | 1014.5 |
| 20260901004146 | 87 | 1 | 7.0 | 11.0 | 0.00 | 0.20 | 0.20 | 47 | 1014.8 |
| 20260901003124 | 87 | 9 | 8.0 | 13.0 | 0.00 | 0.20 | 0.20 | 46 | 1014.7 |
| 20260901002145 | 88 | 15 | 2.0 | 5.0 | 0.00 | 0.20 | 0.20 | 44 | 1014.8 |
| 20260901001124 | 87 | 345 | 3.0 | 5.0 | 0.00 | 0.20 | 0.20 | 44 | 1015.0 |